sat.trackr.live / text

‹ back to catalog

TYVAK-0173

NORAD 48892 · 2021-059P

PAYLOAD ACTIVE UNKNOWN

§ Identity

Operator
Country
AUS
Launch date
2021-06-30
Launch site
AFETR
Launch vehicle
Mass (kg)
RCS (m²)

External: N2YO · Heavens-Above · Gunter

§ Orbital elements

Epoch: 2026-05-25T02:29:25.349568Z

Period
97.18 min
Inclination
96.0086°
Eccentricity
0.0011042
Mean motion
14.81798295 rev/d
Perigee alt
615.9 km
Apogee alt
631.4 km
Semi-major
7,001.8 km
B*
1.9226e-4
RAAN
227.1989°
Arg perigee
105.9194°
Mean anomaly
254.3241°
Rev number
26,482

§ Raw data

TYVAK-01731 48892U 21059P   26145.10376562  .00001487  00000+0  19226-3 0  99982 48892  96.0086 227.1989 0011042 105.9194 254.3241 14.81798295264824

JSON: /api/v1/satellites/48892 · /tle

For live sub-satellite position, see the globe view (requires WebGL).

§ Visibility from observer

Set your observer location to see the next 7 days of passes ≥ 10°. The values pass through the URL so the page stays shareable.

No JS? Fill the form by hand. The geolocation button needs JavaScript.

§ Radio — SatNOGS DB

ModeDescriptionDownlinkUplink
FSK Downlink 401.200 MHz

1 transmitter · refreshed weekly from db.satnogs.org